Orbital Elements at Epoch 2459200.5 (2020-Dec-17.0) TDB
Reference: JPL 24 (heliocentric ecliptic J2000)
Element | Value | Uncertainty (1-sigma) | Units |
e | .1988281370071953 | 3.7476e-08 | |
a | 2.706910729334981 | 1.1062e-08 | au |
q | 2.168700711976518 | 9.8738e-08 | au |
i | 2.425740853672521 | 3.5964e-06 | deg |
node | 153.7107001215066 | 0.00010304 | deg |
peri | 216.6700444146788 | 0.00010369 | deg |
M | 42.6937315442944 | 1.02e-05 | deg |
tp | 2459007.582803845768 (2020-Jun-07.08280385) | 4.5911e-05 | TDB |
period | 1626.706968526973 4.45 | 9.9714e-06 2.73e-08 | d yr |
n | .2213059923914814 | 1.3566e-09 | deg/d |
Q | 3.245120746693444 | 1.3261e-08 | au |
|
| | Orbit Determination Parameters
Additional Information
|